Time,TemperatureF,DewpointF,PressureIn,WindDirection,WindDirectionDegrees,WindSpeedMPH,WindSpeedGustMPH,Humidity,HourlyPrecipIn,Conditions,Clouds,dailyrainin,SoftwareType,DateUTC
2013-01-10 00:02:00,34.7,23.8,29.79,West,281,7.0,8.0,64,0.00,,,0.00,Wunderground v.1.15,2013-01-10 08:02:00,
2013-01-10 00:05:00,34.9,23.6,29.79,West,281,6.0,7.0,63,0.00,,,0.00,Wunderground v.1.15,2013-01-10 08:05:00,
2013-01-10 00:08:00,34.7,23.4,29.79,West,279,7.0,7.0,63,0.00,,,0.00,Wunderground v.1.15,2013-01-10 08:08:00,
2013-01-10 00:09:00,34.6,23.7,29.79,WNW,282,7.0,7.0,64,0.00,,,0.00,Wunderground v.1.15,2013-01-10 08:09:00,
2013-01-10 00:11:00,34.4,23.5,29.80,West,277,8.0,9.0,64,0.00,,,0.00,Wunderground v.1.15,2013-01-10 08:11:00,
2013-01-10 00:15:00,34.7,23.8,29.80,West,279,8.0,8.0,64,0.00,,,0.00,Wunderground v.1.15,2013-01-10 08:15:00,
2013-01-10 00:20:00,34.7,24.1,29.80,West,263,6.0,10.0,65,0.00,,,0.00,Wunderground v.1.15,2013-01-10 08:20:00,
2013-01-10 00:21:00,34.7,24.1,29.79,West,261,5.0,10.0,65,0.00,,,0.00,Wunderground v.1.15,2013-01-10 08:21:00,
2013-01-10 00:22:00,34.5,24.3,29.80,WSW,257,4.0,10.0,66,0.00,,,0.00,Wunderground v.1.15,2013-01-10 08:22:00,
2013-01-10 00:25:00,34.3,24.1,29.79,West,263,6.0,7.0,66,0.00,,,0.00,Wunderground v.1.15,2013-01-10 08:25:00,
2013-01-10 00:26:00,34.3,24.1,29.80,WSW,257,5.0,7.0,66,0.00,,,0.00,Wunderground v.1.15,2013-01-10 08:26:00,
2013-01-10 00:27:00,34.3,23.7,29.79,WSW,249,4.0,7.0,65,0.00,,,0.00,Wunderground v.1.15,2013-01-10 08:27:00,
2013-01-10 00:29:00,34.5,23.9,29.79,WSW,258,4.0,7.0,65,0.00,,,0.00,Wunderground v.1.15,2013-01-10 08:29:00,
2013-01-10 00:32:00,34.7,24.1,29.79,WSW,241,7.0,7.0,65,0.00,,,0.00,Wunderground v.1.15,2013-01-10 08:32:00,
2013-01-10 00:35:00,34.7,24.1,29.80,WSW,250,5.0,7.0,65,0.00,,,0.00,Wunderground v.1.15,2013-01-10 08:35:00,
2013-01-10 00:40:00,34.7,23.8,29.80,West,259,7.0,7.0,64,0.00,,,0.00,Wunderground v.1.15,2013-01-10 08:40:00,
2013-01-10 00:41:00,34.6,24.0,29.80,West,261,4.0,7.0,65,0.00,,,0.00,Wunderground v.1.15,2013-01-10 08:41:00,
2013-01-10 00:44:00,34.4,24.2,29.80,WSW,252,6.0,6.0,66,0.00,,,0.00,Wunderground v.1.15,2013-01-10 08:44:00,
2013-01-10 00:46:00,34.2,24.4,29.80,WSW,241,9.0,10.0,67,0.00,,,0.00,Wunderground v.1.15,2013-01-10 08:46:00,
2013-01-10 00:50:00,34.1,24.6,29.80,WSW,248,8.0,10.0,68,0.00,,,0.00,Wunderground v.1.15,2013-01-10 08:50:00,
2013-01-10 00:55:00,33.6,24.5,29.80,West,263,6.0,7.0,69,0.00,,,0.00,Wunderground v.1.15,2013-01-10 08:55:00,
2013-01-10 00:56:00,33.5,24.8,29.80,West,261,7.0,7.0,70,0.00,,,0.00,Wunderground v.1.15,2013-01-10 08:56:00,
2013-01-10 01:00:00,33.2,24.5,29.80,West,263,6.0,7.0,70,0.00,,,0.00,Wunderground v.1.15,2013-01-10 09:00:00,
2013-01-10 01:02:00,33.2,24.5,29.80,West,269,8.0,8.0,70,0.00,,,0.00,Wunderground v.1.15,2013-01-10 09:02:00,
2013-01-10 01:04:00,33.1,24.7,29.80,West,267,6.0,6.0,71,0.00,,,0.00,Wunderground v.1.15,2013-01-10 09:04:00,
2013-01-10 01:05:00,33.1,24.4,29.80,West,264,5.0,6.0,70,0.00,,,0.00,Wunderground v.1.15,2013-01-10 09:05:00,
2013-01-10 01:09:00,33.1,24.7,29.80,West,271,5.0,7.0,71,0.00,,,0.00,Wunderground v.1.15,2013-01-10 09:09:00,
2013-01-10 01:11:00,33.2,24.5,29.80,West,261,6.0,7.0,70,0.00,,,0.00,Wunderground v.1.15,2013-01-10 09:11:00,
2013-01-10 01:12:00,33.3,24.6,29.80,West,265,6.0,7.0,70,0.00,,,0.00,Wunderground v.1.15,2013-01-10 09:12:00,
2013-01-10 01:15:00,33.3,24.6,29.80,West,281,4.0,6.0,70,0.00,,,0.00,Wunderground v.1.15,2013-01-10 09:15:00,
2013-01-10 01:16:00,33.3,24.2,29.80,West,281,6.0,7.0,69,0.00,,,0.00,Wunderground v.1.15,2013-01-10 09:16:00,
2013-01-10 01:17:00,33.3,24.2,29.80,WNW,282,7.0,7.0,69,0.00,,,0.00,Wunderground v.1.15,2013-01-10 09:17:00,
2013-01-10 01:19:00,33.4,24.3,29.80,West,281,6.0,7.0,69,0.00,,,0.00,Wunderground v.1.15,2013-01-10 09:19:00,
2013-01-10 01:22:00,33.3,24.6,29.80,WNW,290,6.0,8.0,70,0.00,,,0.00,Wunderground v.1.15,2013-01-10 09:22:00,
2013-01-10 01:23:00,33.2,24.5,29.80,WNW,286,7.0,7.0,70,0.00,,,0.00,Wunderground v.1.15,2013-01-10 09:23:00,
2013-01-10 01:26:00,33.0,24.3,29.80,WNW,294,6.0,8.0,70,0.00,,,0.00,Wunderground v.1.15,2013-01-10 09:26:00,
2013-01-10 01:29:00,32.9,24.2,29.80,WNW,295,7.0,9.0,70,0.00,,,0.00,Wunderground v.1.15,2013-01-10 09:29:00,
2013-01-10 01:32:00,33.0,24.3,29.80,WNW,289,7.0,9.0,70,0.00,,,0.00,Wunderground v.1.15,2013-01-10 09:32:00,
2013-01-10 01:33:00,33.0,24.3,29.80,WNW,290,8.0,9.0,70,0.00,,,0.00,Wunderground v.1.15,2013-01-10 09:33:00,
2013-01-10 01:34:00,33.0,24.3,29.80,WNW,292,6.0,7.0,70,0.00,,,0.00,Wunderground v.1.15,2013-01-10 09:34:00,
2013-01-10 01:38:00,32.9,24.2,29.80,WNW,290,7.0,10.0,70,0.00,,,0.00,Wunderground v.1.15,2013-01-10 09:38:00,
2013-01-10 01:39:00,32.9,24.2,29.80,WNW,300,11.0,11.0,70,0.00,,,0.00,Wunderground v.1.15,2013-01-10 09:39:00,
2013-01-10 01:42:00,33.0,24.3,29.80,WNW,295,7.0,11.0,70,0.00,,,0.00,Wunderground v.1.15,2013-01-10 09:42:00,
2013-01-10 01:44:00,33.1,24.0,29.80,WNW,285,9.0,9.0,69,0.00,,,0.00,Wunderground v.1.15,2013-01-10 09:44:00,
2013-01-10 01:45:00,33.2,24.1,29.80,WNW,290,7.0,9.0,69,0.00,,,0.00,Wunderground v.1.15,2013-01-10 09:45:00,
2013-01-10 01:50:00,33.3,24.2,29.80,WNW,300,9.0,10.0,69,0.00,,,0.00,Wunderground v.1.15,2013-01-10 09:50:00,
2013-01-10 01:52:00,33.5,24.4,29.80,WNW,295,8.0,10.0,69,0.00,,,0.00,Wunderground v.1.15,2013-01-10 09:52:00,
2013-01-10 01:53:00,33.6,24.2,29.80,WNW,291,7.0,10.0,68,0.00,,,0.00,Wunderground v.1.15,2013-01-10 09:53:00,
2013-01-10 01:57:00,33.8,24.0,29.80,WNW,286,10.0,11.0,67,0.00,,,0.00,Wunderground v.1.15,2013-01-10 09:57:00,
2013-01-10 02:02:00,34.2,24.0,29.81,WNW,286,9.0,14.0,66,0.00,,,0.00,Wunderground v.1.15,2013-01-10 10:02:00,
2013-01-10 02:07:00,33.4,24.0,29.81,West,272,8.0,10.0,68,0.00,,,0.00,Wunderground v.1.15,2013-01-10 10:07:00,
2013-01-10 02:12:00,33.2,23.8,29.81,West,279,5.0,10.0,68,0.00,,,0.00,Wunderground v.1.15,2013-01-10 10:12:00,
2013-01-10 02:17:00,33.3,23.9,29.81,West,277,6.0,9.0,68,0.00,,,0.00,Wunderground v.1.15,2013-01-10 10:17:00,
2013-01-10 02:22:00,33.2,24.1,29.81,WSW,246,8.0,12.0,69,0.00,,,0.00,Wunderground v.1.15,2013-01-10 10:22:00,
2013-01-10 02:27:00,33.0,24.3,29.81,WSW,242,7.0,10.0,70,0.00,,,0.00,Wunderground v.1.15,2013-01-10 10:27:00,
2013-01-10 02:32:00,33.0,24.3,29.82,West,267,9.0,13.0,70,0.00,,,0.00,Wunderground v.1.15,2013-01-10 10:32:00,
2013-01-10 02:37:00,33.3,24.2,29.81,WSW,244,8.0,18.0,69,0.00,,,0.00,Wunderground v.1.15,2013-01-10 10:37:00,
2013-01-10 02:42:00,33.6,24.2,29.81,NW,315,9.0,18.0,68,0.00,,,0.00,Wunderground v.1.15,2013-01-10 10:42:00,
2013-01-10 02:47:00,33.4,24.0,29.81,West,262,5.0,14.0,68,0.00,,,0.00,Wunderground v.1.15,2013-01-10 10:47:00,
2013-01-10 02:52:00,33.4,24.0,29.82,WNW,298,8.0,14.0,68,0.00,,,0.00,Wunderground v.1.15,2013-01-10 10:52:00,
2013-01-10 02:57:00,32.7,24.0,29.81,WNW,284,4.0,10.0,70,0.00,,,0.00,Wunderground v.1.15,2013-01-10 10:57:00,
2013-01-10 03:02:00,32.9,23.8,29.81,WNW,302,5.0,10.0,69,0.00,,,0.00,Wunderground v.1.15,2013-01-10 11:02:00,
2013-01-10 03:07:00,33.3,23.5,29.82,WNW,288,8.0,11.0,67,0.00,,,0.00,Wunderground v.1.15,2013-01-10 11:07:00,
2013-01-10 03:12:00,33.1,23.3,29.82,WNW,301,5.0,11.0,67,0.00,,,0.00,Wunderground v.1.15,2013-01-10 11:12:00,
2013-01-10 03:17:00,33.6,23.4,29.82,WNW,302,4.0,12.0,66,0.00,,,0.00,Wunderground v.1.15,2013-01-10 11:17:00,
2013-01-10 03:22:00,33.5,23.4,29.82,WNW,300,5.0,12.0,66,0.00,,,0.00,Wunderground v.1.15,2013-01-10 11:22:00,
2013-01-10 03:27:00,33.6,23.4,29.82,NW,311,9.0,11.0,66,0.00,,,0.00,Wunderground v.1.15,2013-01-10 11:27:00,
2013-01-10 03:32:00,33.5,23.4,29.82,NNW,327,9.0,13.0,66,0.00,,,0.00,Wunderground v.1.15,2013-01-10 11:32:00,
2013-01-10 03:37:00,33.9,23.4,29.82,NW,306,5.0,13.0,65,0.00,,,0.00,Wunderground v.1.15,2013-01-10 11:37:00,
2013-01-10 03:42:00,33.9,23.0,29.82,WNW,289,6.0,13.0,64,0.00,,,0.00,Wunderground v.1.15,2013-01-10 11:42:00,
2013-01-10 03:47:00,33.7,23.2,29.82,WNW,294,11.0,12.0,65,0.00,,,0.00,Wunderground v.1.15,2013-01-10 11:47:00,
2013-01-10 03:52:00,33.6,23.1,29.83,NW,305,8.0,13.0,65,0.00,,,0.00,Wunderground v.1.15,2013-01-10 11:52:00,
2013-01-10 03:57:00,34.4,23.1,29.83,WNW,283,10.0,11.0,63,0.00,,,0.00,Wunderground v.1.15,2013-01-10 11:57:00,
2013-01-10 04:02:00,34.4,23.1,29.83,WNW,288,11.0,14.0,63,0.00,,,0.00,Wunderground v.1.15,2013-01-10 12:02:00,
2013-01-10 04:07:00,34.4,23.1,29.83,WNW,293,8.0,11.0,63,0.00,,,0.00,Wunderground v.1.15,2013-01-10 12:07:00,
2013-01-10 04:12:00,34.2,22.9,29.83,West,262,5.0,11.0,63,0.00,,,0.00,Wunderground v.1.15,2013-01-10 12:12:00,
2013-01-10 04:17:00,34.0,23.1,29.84,West,269,7.0,9.0,64,0.00,,,0.00,Wunderground v.1.15,2013-01-10 12:17:00,
2013-01-10 04:22:00,33.8,22.9,29.84,West,260,4.0,9.0,64,0.00,,,0.00,Wunderground v.1.15,2013-01-10 12:22:00,
2013-01-10 04:27:00,33.5,23.0,29.83,SW,231,4.0,7.0,65,0.00,,,0.00,Wunderground v.1.15,2013-01-10 12:27:00,
2013-01-10 04:32:00,33.4,22.9,29.84,WSW,252,1.0,7.0,65,0.00,,,0.00,Wunderground v.1.15,2013-01-10 12:32:00,
2013-01-10 04:37:00,33.5,23.0,29.84,West,260,5.0,6.0,65,0.00,,,0.00,Wunderground v.1.15,2013-01-10 12:37:00,
2013-01-10 04:42:00,33.8,22.9,29.84,WNW,283,1.0,7.0,64,0.00,,,0.00,Wunderground v.1.15,2013-01-10 12:42:00,
2013-01-10 04:47:00,33.9,23.4,29.85,NNW,342,1.0,7.0,65,0.00,,,0.00,Wunderground v.1.15,2013-01-10 12:47:00,
2013-01-10 04:52:00,34.4,24.6,29.84,West,262,4.0,19.0,67,0.00,,,0.00,Wunderground v.1.15,2013-01-10 12:52:00,
2013-01-10 04:57:00,34.4,24.9,29.84,West,273,12.0,17.0,68,0.00,,,0.00,Wunderground v.1.15,2013-01-10 12:57:00,
2013-01-10 05:02:00,34.6,25.1,29.84,South,191,1.0,17.0,68,0.00,,,0.00,Wunderground v.1.15,2013-01-10 13:02:00,
2013-01-10 05:07:00,34.7,25.6,29.85,NNW,339,0.0,12.0,69,0.00,,,0.00,Wunderground v.1.15,2013-01-10 13:07:00,
2013-01-10 05:12:00,34.6,25.1,29.85,East,85,6.0,12.0,68,0.00,,,0.00,Wunderground v.1.15,2013-01-10 13:12:00,
2013-01-10 05:17:00,35.1,25.2,29.85,NNW,338,3.0,11.0,67,0.00,,,0.00,Wunderground v.1.15,2013-01-10 13:17:00,
2013-01-10 05:22:00,36.4,23.4,29.85,WSW,240,8.0,16.0,59,0.00,,,0.00,Wunderground v.1.15,2013-01-10 13:22:00,
2013-01-10 05:27:00,36.7,23.7,29.85,WNW,290,6.0,13.0,59,0.00,,,0.00,Wunderground v.1.15,2013-01-10 13:27:00,
2013-01-10 05:32:00,36.3,23.3,29.85,WSW,248,14.0,18.0,59,0.00,,,0.00,Wunderground v.1.15,2013-01-10 13:32:00,
2013-01-10 05:37:00,36.6,23.6,29.86,West,279,14.0,17.0,59,0.00,,,0.00,Wunderground v.1.15,2013-01-10 13:37:00,
2013-01-10 05:42:00,36.4,23.4,29.86,NW,324,1.0,17.0,59,0.00,,,0.00,Wunderground v.1.15,2013-01-10 13:42:00,
2013-01-10 05:47:00,36.4,23.4,29.86,NW,323,1.0,8.0,59,0.00,,,0.00,Wunderground v.1.15,2013-01-10 13:47:00,
2013-01-10 05:52:00,36.3,22.9,29.86,WNW,303,3.0,11.0,58,0.00,,,0.00,Wunderground v.1.15,2013-01-10 13:52:00,
2013-01-10 05:57:00,36.6,22.4,29.86,NNW,346,2.0,8.0,56,0.00,,,0.00,Wunderground v.1.15,2013-01-10 13:57:00,
2013-01-10 06:02:00,36.7,22.5,29.86,North,5,4.0,11.0,56,0.00,,,0.00,Wunderground v.1.15,2013-01-10 14:02:00,
2013-01-10 06:07:00,36.6,21.9,29.86,NNW,340,3.0,9.0,55,0.00,,,0.00,Wunderground v.1.15,2013-01-10 14:07:00,
2013-01-10 06:12:00,35.6,22.3,29.87,NNW,329,7.0,10.0,58,0.00,,,0.00,Wunderground v.1.15,2013-01-10 14:12:00,
2013-01-10 06:17:00,34.5,22.8,29.87,NNW,348,8.0,8.0,62,0.00,,,0.00,Wunderground v.1.15,2013-01-10 14:17:00,
2013-01-10 06:22:00,34.3,22.2,29.87,NNW,336,7.0,9.0,61,0.00,,,0.00,Wunderground v.1.15,2013-01-10 14:22:00,
2013-01-10 06:27:00,34.3,22.2,29.87,NNW,343,4.0,6.0,61,0.00,,,0.00,Wunderground v.1.15,2013-01-10 14:27:00,
2013-01-10 06:32:00,34.2,21.7,29.88,NNW,327,5.0,7.0,60,0.00,,,0.00,Wunderground v.1.15,2013-01-10 14:32:00,
2013-01-10 06:37:00,33.8,21.8,29.88,NNW,335,5.0,7.0,61,0.00,,,0.00,Wunderground v.1.15,2013-01-10 14:37:00,
2013-01-10 06:42:00,32.8,22.0,29.88,NNW,339,3.0,7.0,64,0.00,,,0.00,Wunderground v.1.15,2013-01-10 14:42:00,
2013-01-10 06:47:00,32.3,21.8,29.89,NNW,339,1.0,5.0,65,0.00,,,0.00,Wunderground v.1.15,2013-01-10 14:47:00,
2013-01-10 06:52:00,32.0,21.9,29.89,NNW,339,3.0,5.0,66,0.00,,,0.00,Wunderground v.1.15,2013-01-10 14:52:00,
2013-01-10 06:57:00,31.9,22.2,29.89,NNW,344,6.0,6.0,67,0.00,,,0.00,Wunderground v.1.15,2013-01-10 14:57:00,
2013-01-10 07:02:00,31.9,22.2,29.89,North,350,6.0,6.0,67,0.00,,,0.00,Wunderground v.1.15,2013-01-10 15:02:00,
2013-01-10 07:07:00,31.7,22.3,29.90,North,5,6.0,7.0,68,0.00,,,0.00,Wunderground v.1.15,2013-01-10 15:07:00,
2013-01-10 07:12:00,31.5,22.5,29.90,North,355,6.0,7.0,69,0.00,,,0.00,Wunderground v.1.15,2013-01-10 15:12:00,
2013-01-10 07:17:00,31.3,23.0,29.90,North,355,6.0,7.0,71,0.00,,,0.00,Wunderground v.1.15,2013-01-10 15:17:00,
2013-01-10 07:22:00,31.0,23.0,29.90,North,360,5.0,7.0,72,0.00,,,0.00,Wunderground v.1.15,2013-01-10 15:22:00,
2013-01-10 07:27:00,31.1,23.1,29.91,North,5,2.0,5.0,72,0.00,,,0.00,Wunderground v.1.15,2013-01-10 15:27:00,
2013-01-10 07:32:00,31.3,23.0,29.91,North,5,6.0,6.0,71,0.00,,,0.00,Wunderground v.1.15,2013-01-10 15:32:00,
2013-01-10 07:37:00,32.2,22.5,29.91,North,10,6.0,8.0,67,0.00,,,0.00,Wunderground v.1.15,2013-01-10 15:37:00,
2013-01-10 07:42:00,32.7,22.2,29.91,NNW,332,6.0,8.0,65,0.00,,,0.00,Wunderground v.1.15,2013-01-10 15:42:00,
2013-01-10 07:47:00,33.0,22.1,29.91,NW,324,5.0,9.0,64,0.00,,,0.00,Wunderground v.1.15,2013-01-10 15:47:00,
2013-01-10 07:52:00,33.3,22.8,29.91,NNW,338,7.0,9.0,65,0.00,,,0.00,Wunderground v.1.15,2013-01-10 15:52:00,
2013-01-10 07:57:00,33.7,22.4,29.92,NW,318,6.0,12.0,63,0.00,,,0.00,Wunderground v.1.15,2013-01-10 15:57:00,
2013-01-10 08:02:00,33.7,22.8,29.92,NNW,342,8.0,12.0,64,0.00,,,0.00,Wunderground v.1.15,2013-01-10 16:02:00,
2013-01-10 08:07:00,33.7,22.4,29.92,NNW,331,8.0,10.0,63,0.00,,,0.00,Wunderground v.1.15,2013-01-10 16:07:00,
2013-01-10 08:12:00,33.8,23.3,29.92,NNW,340,7.0,11.0,65,0.00,,,0.00,Wunderground v.1.15,2013-01-10 16:12:00,
2013-01-10 08:17:00,34.2,24.0,29.92,North,360,10.0,14.0,66,0.00,,,0.00,Wunderground v.1.15,2013-01-10 16:17:00,
2013-01-10 08:22:00,34.4,24.6,29.92,North,355,8.0,14.0,67,0.00,,,0.00,Wunderground v.1.15,2013-01-10 16:22:00,
2013-01-10 08:27:00,34.3,25.9,29.92,North,5,11.0,20.0,71,0.00,,,0.00,Wunderground v.1.15,2013-01-10 16:27:00,
2013-01-10 08:32:00,34.1,26.3,29.93,NNW,340,5.0,20.0,73,0.00,,,0.00,Wunderground v.1.15,2013-01-10 16:32:00,
2013-01-10 08:37:00,34.0,26.6,29.93,NW,323,5.0,8.0,74,0.00,,,0.00,Wunderground v.1.15,2013-01-10 16:37:00,
2013-01-10 08:42:00,34.2,26.8,29.93,NW,306,5.0,8.0,74,0.00,,,0.00,Wunderground v.1.15,2013-01-10 16:42:00,
2013-01-10 08:43:00,34.2,26.8,29.93,West,276,4.0,8.0,74,0.00,,,0.00,Wunderground v.1.15,2013-01-10 16:43:00,
2013-01-10 08:48:00,34.3,26.9,29.93,West,275,2.0,7.0,74,0.00,,,0.00,Wunderground v.1.15,2013-01-10 16:48:00,
2013-01-10 08:53:00,34.3,26.9,29.93,West,273,3.0,7.0,74,0.00,,,0.00,Wunderground v.1.15,2013-01-10 16:53:00,
2013-01-10 08:58:00,34.3,27.2,29.93,NNW,334,3.0,6.0,75,0.00,,,0.00,Wunderground v.1.15,2013-01-10 16:58:00,
2013-01-10 09:00:00,34.3,27.2,29.94,NNW,334,0.0,2.0,75,0.00,,,0.00,Wunderground v.1.15,2013-01-10 17:00:00,
2013-01-10 09:01:00,34.3,27.2,29.94,NNW,334,0.0,2.0,75,0.00,,,0.00,Wunderground v.1.15,2013-01-10 17:01:00,
2013-01-10 09:06:00,34.3,27.2,29.94,WNW,298,2.0,5.0,75,0.00,,,0.00,Wunderground v.1.15,2013-01-10 17:06:00,
2013-01-10 09:11:00,33.8,27.0,29.94,WSW,237,3.0,7.0,76,0.00,,,0.00,Wunderground v.1.15,2013-01-10 17:11:00,
2013-01-10 09:16:00,33.7,27.3,29.94,WSW,238,2.0,4.0,77,0.00,,,0.00,Wunderground v.1.15,2013-01-10 17:16:00,
2013-01-10 09:21:00,33.8,27.0,29.94,WSW,238,1.0,4.0,76,0.00,,,0.00,Wunderground v.1.15,2013-01-10 17:21:00,
2013-01-10 09:26:00,34.1,27.3,29.94,WSW,238,2.0,4.0,76,0.00,,,0.00,Wunderground v.1.15,2013-01-10 17:26:00,
2013-01-10 09:31:00,34.0,27.2,29.94,WSW,239,3.0,5.0,76,0.00,,,0.00,Wunderground v.1.15,2013-01-10 17:31:00,
2013-01-10 09:36:00,34.2,27.1,29.94,WSW,239,4.0,5.0,75,0.00,,,0.00,Wunderground v.1.15,2013-01-10 17:36:00,
2013-01-10 09:41:00,34.2,26.1,29.94,West,272,4.0,9.0,72,0.00,,,0.00,Wunderground v.1.15,2013-01-10 17:41:00,
2013-01-10 09:46:00,34.3,26.2,29.94,West,272,2.0,3.0,72,0.00,,,0.00,Wunderground v.1.15,2013-01-10 17:46:00,
2013-01-10 09:51:00,34.4,26.0,29.94,West,271,2.0,4.0,71,0.00,,,0.00,Wunderground v.1.15,2013-01-10 17:51:00,
2013-01-10 09:56:00,34.5,26.1,29.94,West,274,2.0,7.0,71,0.00,,,0.00,Wunderground v.1.15,2013-01-10 17:56:00,
2013-01-10 10:01:00,34.6,25.5,29.94,West,274,3.0,7.0,69,0.00,,,0.00,Wunderground v.1.15,2013-01-10 18:01:00,
2013-01-10 10:06:00,34.4,24.6,29.94,NW,306,1.0,4.0,67,0.00,,,0.00,Wunderground v.1.15,2013-01-10 18:06:00,
2013-01-10 10:11:00,34.5,24.7,29.94,NW,306,0.0,4.0,67,0.00,,,0.00,Wunderground v.1.15,2013-01-10 18:11:00,
2013-01-10 10:16:00,34.4,24.6,29.94,ENE,58,0.0,6.0,67,0.00,,,0.00,Wunderground v.1.15,2013-01-10 18:16:00,
2013-01-10 10:21:00,34.4,24.2,29.94,NW,319,2.0,9.0,66,0.00,,,0.00,Wunderground v.1.15,2013-01-10 18:21:00,
2013-01-10 10:26:00,34.3,24.1,29.94,NW,312,1.0,5.0,66,0.00,,,0.00,Wunderground v.1.15,2013-01-10 18:26:00,
2013-01-10 10:31:00,34.2,23.7,29.94,WNW,293,6.0,11.0,65,0.00,,,0.00,Wunderground v.1.15,2013-01-10 18:31:00,
2013-01-10 10:36:00,34.1,23.6,29.94,North,5,10.0,15.0,65,0.00,,,0.00,Wunderground v.1.15,2013-01-10 18:36:00,
2013-01-10 10:41:00,33.9,23.7,29.94,NNE,28,9.0,15.0,66,0.00,,,0.00,Wunderground v.1.15,2013-01-10 18:41:00,
2013-01-10 10:46:00,33.9,23.7,29.94,North,5,8.0,14.0,66,0.00,,,0.00,Wunderground v.1.15,2013-01-10 18:46:00,
2013-01-10 10:51:00,33.9,24.1,29.94,NNE,28,10.0,14.0,67,0.00,,,0.00,Wunderground v.1.15,2013-01-10 18:51:00,
2013-01-10 10:56:00,33.9,23.7,29.93,NNE,17,7.0,11.0,66,0.00,,,0.00,Wunderground v.1.15,2013-01-10 18:56:00,
2013-01-10 11:01:00,33.9,23.7,29.94,NE,34,9.0,18.0,66,0.00,,,0.00,Wunderground v.1.15,2013-01-10 19:01:00,
2013-01-10 11:06:00,34.0,23.8,29.93,NNE,17,6.0,10.0,66,0.00,,,0.00,Wunderground v.1.15,2013-01-10 19:06:00,
2013-01-10 11:11:00,34.1,23.9,29.93,NNE,15,7.0,14.0,66,0.00,,,0.00,Wunderground v.1.15,2013-01-10 19:11:00,
2013-01-10 11:16:00,33.7,22.8,29.93,NNE,20,14.0,19.0,64,0.00,,,0.00,Wunderground v.1.15,2013-01-10 19:16:00,
2013-01-10 11:21:00,33.3,22.4,29.93,NNE,19,15.0,21.0,64,0.00,,,0.00,Wunderground v.1.15,2013-01-10 19:21:00,
2013-01-10 11:26:00,33.0,22.5,29.93,NNE,14,12.0,23.0,65,0.00,,,0.00,Wunderground v.1.15,2013-01-10 19:26:00,
2013-01-10 11:31:00,33.0,22.5,29.93,North,5,17.0,23.0,65,0.00,,,0.00,Wunderground v.1.15,2013-01-10 19:31:00,
2013-01-10 11:36:00,33.1,22.2,29.92,NNE,30,9.0,26.0,64,0.00,,,0.00,Wunderground v.1.15,2013-01-10 19:36:00,
2013-01-10 11:41:00,33.1,22.6,29.93,NNE,17,14.0,26.0,65,0.00,,,0.00,Wunderground v.1.15,2013-01-10 19:41:00,
2013-01-10 11:46:00,33.0,22.1,29.92,North,11,24.0,24.0,64,0.00,,,0.00,Wunderground v.1.15,2013-01-10 19:46:00,
2013-01-10 11:51:00,33.0,22.1,29.92,North,5,16.0,26.0,64,0.00,,,0.00,Wunderground v.1.15,2013-01-10 19:51:00,
2013-01-10 11:56:00,32.9,22.0,29.92,NNE,18,14.0,23.0,64,0.00,,,0.00,Wunderground v.1.15,2013-01-10 19:56:00,
2013-01-10 12:01:00,32.9,21.7,29.92,NNE,24,25.0,25.0,63,0.00,,,0.00,Wunderground v.1.15,2013-01-10 20:01:00,
2013-01-10 12:03:00,32.9,21.7,29.92,North,5,20.0,25.0,63,0.00,,,0.00,Wunderground v.1.15,2013-01-10 20:03:00,
2013-01-10 12:08:00,33.0,21.8,29.92,NNE,15,22.0,26.0,63,0.00,,,0.00,Wunderground v.1.15,2013-01-10 20:08:00,
2013-01-10 12:13:00,33.1,21.9,29.92,NNE,13,15.0,26.0,63,0.00,,,0.00,Wunderground v.1.15,2013-01-10 20:13:00,
2013-01-10 12:16:00,33.2,22.0,29.92,NNE,24,22.0,23.0,63,0.00,,,0.00,Wunderground v.1.15,2013-01-10 20:16:00,
2013-01-10 12:21:00,33.1,21.9,29.92,NNE,19,21.0,25.0,63,0.00,,,0.00,Wunderground v.1.15,2013-01-10 20:21:00,
2013-01-10 12:26:00,33.1,22.2,29.92,NE,43,10.0,22.0,64,0.00,,,0.00,Wunderground v.1.15,2013-01-10 20:26:00,
2013-01-10 12:31:00,33.2,22.0,29.92,NE,48,16.0,22.0,63,0.00,,,0.00,Wunderground v.1.15,2013-01-10 20:31:00,
2013-01-10 12:36:00,33.2,22.0,29.92,NNE,24,7.0,18.0,63,0.00,,,0.00,Wunderground v.1.15,2013-01-10 20:36:00,
2013-01-10 12:41:00,33.4,22.1,29.92,NNE,19,10.0,19.0,63,0.00,,,0.00,Wunderground v.1.15,2013-01-10 20:41:00,
2013-01-10 12:46:00,33.9,22.6,29.92,NNE,15,15.0,18.0,63,0.00,,,0.00,Wunderground v.1.15,2013-01-10 20:46:00,
2013-01-10 12:51:00,34.0,22.0,29.92,NNE,20,11.0,20.0,61,0.00,,,0.00,Wunderground v.1.15,2013-01-10 20:51:00,
2013-01-10 12:56:00,34.2,22.5,29.92,NNE,29,14.0,23.0,62,0.00,,,0.00,Wunderground v.1.15,2013-01-10 20:56:00,
2013-01-10 13:01:00,34.2,22.9,29.92,NNE,13,13.0,23.0,63,0.00,,,0.00,Wunderground v.1.15,2013-01-10 21:01:00,
2013-01-10 13:06:00,34.1,21.7,29.92,NNE,28,15.0,24.0,60,0.00,,,0.00,Wunderground v.1.15,2013-01-10 21:06:00,
2013-01-10 13:11:00,34.3,22.2,29.92,North,360,17.0,24.0,61,0.00,,,0.00,Wunderground v.1.15,2013-01-10 21:11:00,
2013-01-10 13:13:00,34.4,21.9,29.92,NNE,17,3.0,24.0,60,0.00,,,0.00,Wunderground v.1.15,2013-01-10 21:13:00,
2013-01-10 13:18:00,34.3,21.4,29.92,North,9,16.0,26.0,59,0.00,,,0.00,Wunderground v.1.15,2013-01-10 21:18:00,
2013-01-10 13:23:00,34.1,21.3,29.92,North,5,19.0,26.0,59,0.00,,,0.00,Wunderground v.1.15,2013-01-10 21:23:00,
2013-01-10 13:28:00,34.2,21.7,29.92,NNE,14,6.0,19.0,60,0.00,,,0.00,Wunderground v.1.15,2013-01-10 21:28:00,
2013-01-10 13:33:00,34.1,21.3,29.92,NE,39,20.0,24.0,59,0.00,,,0.00,Wunderground v.1.15,2013-01-10 21:33:00,
2013-01-10 13:38:00,34.1,21.7,29.92,NNW,346,11.0,23.0,60,0.00,,,0.00,Wunderground v.1.15,2013-01-10 21:38:00,
2013-01-10 13:43:00,34.0,21.2,29.92,North,11,14.0,23.0,59,0.00,,,0.00,Wunderground v.1.15,2013-01-10 21:43:00,
2013-01-10 13:48:00,33.9,21.1,29.92,NNE,26,14.0,25.0,59,0.00,,,0.00,Wunderground v.1.15,2013-01-10 21:48:00,
2013-01-10 13:53:00,33.9,21.1,29.92,NE,34,16.0,25.0,59,0.00,,,0.00,Wunderground v.1.15,2013-01-10 21:53:00,
2013-01-10 13:58:00,33.7,20.9,29.92,NNE,26,14.0,25.0,59,0.00,,,0.00,Wunderground v.1.15,2013-01-10 21:58:00,
2013-01-10 14:03:00,33.9,21.5,29.92,North,360,17.0,25.0,60,0.00,,,0.00,Wunderground v.1.15,2013-01-10 22:03:00,
2013-01-10 14:08:00,33.9,21.5,29.92,NNE,26,16.0,21.0,60,0.00,,,0.00,Wunderground v.1.15,2013-01-10 22:08:00,
2013-01-10 14:13:00,33.9,21.9,29.93,North,5,21.0,21.0,61,0.00,,,0.00,Wunderground v.1.15,2013-01-10 22:13:00,
2013-01-10 14:18:00,33.9,21.1,29.93,NE,35,13.0,22.0,59,0.00,,,0.00,Wunderground v.1.15,2013-01-10 22:18:00,
2013-01-10 14:23:00,33.8,21.4,29.93,NNE,29,11.0,22.0,60,0.00,,,0.00,Wunderground v.1.15,2013-01-10 22:23:00,
2013-01-10 14:28:00,33.8,21.4,29.93,NNE,19,18.0,23.0,60,0.00,,,0.00,Wunderground v.1.15,2013-01-10 22:28:00,
2013-01-10 14:33:00,33.8,21.4,29.93,NNE,32,12.0,23.0,60,0.00,,,0.00,Wunderground v.1.15,2013-01-10 22:33:00,
2013-01-10 14:38:00,33.6,21.2,29.93,NNE,14,13.0,23.0,60,0.00,,,0.00,Wunderground v.1.15,2013-01-10 22:38:00,
2013-01-10 14:43:00,33.6,21.2,29.93,NNE,13,18.0,23.0,60,0.00,,,0.00,Wunderground v.1.15,2013-01-10 22:43:00,
2013-01-10 14:48:00,33.5,20.7,29.93,NNE,17,15.0,22.0,59,0.00,,,0.00,Wunderground v.1.15,2013-01-10 22:48:00,
2013-01-10 14:53:00,33.4,20.6,29.93,North,360,10.0,22.0,59,0.00,,,0.00,Wunderground v.1.15,2013-01-10 22:53:00,
2013-01-10 14:58:00,33.5,21.1,29.93,North,360,16.0,19.0,60,0.00,,,0.00,Wunderground v.1.15,2013-01-10 22:58:00,
2013-01-10 15:03:00,33.4,21.0,29.93,NNE,22,13.0,19.0,60,0.00,,,0.00,Wunderground v.1.15,2013-01-10 23:03:00,
2013-01-10 15:08:00,33.3,20.9,29.93,North,9,15.0,20.0,60,0.00,,,0.00,Wunderground v.1.15,2013-01-10 23:08:00,
2013-01-10 15:13:00,33.3,20.9,29.94,North,11,13.0,20.0,60,0.00,,,0.00,Wunderground v.1.15,2013-01-10 23:13:00,
2013-01-10 15:18:00,33.1,21.1,29.94,NE,34,11.0,17.0,61,0.00,,,0.00,Wunderground v.1.15,2013-01-10 23:18:00,
2013-01-10 15:23:00,33.1,20.7,29.93,NNE,20,14.0,20.0,60,0.00,,,0.00,Wunderground v.1.15,2013-01-10 23:23:00,
2013-01-10 15:28:00,33.0,20.6,29.94,North,355,10.0,21.0,60,0.00,,,0.00,Wunderground v.1.15,2013-01-10 23:28:00,
2013-01-10 15:33:00,32.9,20.9,29.94,NNE,16,15.0,21.0,61,0.00,,,0.00,Wunderground v.1.15,2013-01-10 23:33:00,
2013-01-10 15:38:00,32.8,20.4,29.94,NNE,14,16.0,20.0,60,0.00,,,0.00,Wunderground v.1.15,2013-01-10 23:38:00,
2013-01-10 15:43:00,32.6,20.2,29.94,North,355,11.0,21.0,60,0.00,,,0.00,Wunderground v.1.15,2013-01-10 23:43:00,
2013-01-10 15:48:00,32.5,20.5,29.94,North,10,9.0,19.0,61,0.00,,,0.00,Wunderground v.1.15,2013-01-10 23:48:00,
2013-01-10 15:53:00,32.3,20.0,29.94,NNE,23,15.0,23.0,60,0.00,,,0.00,Wunderground v.1.15,2013-01-10 23:53:00,
2013-01-10 15:58:00,32.1,20.2,29.95,NNE,24,11.0,23.0,61,0.00,,,0.00,Wunderground v.1.15,2013-01-10 23:58:00,
2013-01-10 16:03:00,32.0,20.4,29.95,North,11,11.0,23.0,62,0.00,,,0.00,Wunderground v.1.15,2013-01-11 00:03:00,
2013-01-10 16:08:00,31.9,19.6,29.95,NNE,20,19.0,23.0,60,0.00,,,0.00,Wunderground v.1.15,2013-01-11 00:08:00,
2013-01-10 16:13:00,31.6,19.3,29.95,NNE,13,19.0,23.0,60,0.00,,,0.00,Wunderground v.1.15,2013-01-11 00:13:00,
2013-01-10 16:18:00,31.5,19.2,29.95,NNE,26,18.0,23.0,60,0.00,,,0.00,Wunderground v.1.15,2013-01-11 00:18:00,
2013-01-10 16:23:00,31.3,19.4,29.95,NNE,26,7.0,23.0,61,0.00,,,0.00,Wunderground v.1.15,2013-01-11 00:23:00,
2013-01-10 16:28:00,31.2,18.9,29.95,NNE,24,14.0,23.0,60,0.00,,,0.00,Wunderground v.1.15,2013-01-11 00:28:00,
2013-01-10 16:33:00,31.2,19.3,29.95,NNE,16,17.0,26.0,61,0.00,,,0.00,Wunderground v.1.15,2013-01-11 00:33:00,
2013-01-10 16:38:00,31.0,18.7,29.95,NNE,15,14.0,23.0,60,0.00,,,0.00,Wunderground v.1.15,2013-01-11 00:38:00,
2013-01-10 16:43:00,30.8,18.9,29.95,NNE,21,18.0,23.0,61,0.00,,,0.00,Wunderground v.1.15,2013-01-11 00:43:00,
2013-01-10 16:48:00,30.7,18.4,29.95,NNE,20,13.0,27.0,60,0.00,,,0.00,Wunderground v.1.15,2013-01-11 00:48:00,
2013-01-10 16:53:00,30.5,19.0,29.95,NNE,19,14.0,27.0,62,0.00,,,0.00,Wunderground v.1.15,2013-01-11 00:53:00,
2013-01-10 16:58:00,30.6,18.7,29.95,NNE,31,17.0,23.0,61,0.00,,,0.00,Wunderground v.1.15,2013-01-11 00:58:00,
2013-01-10 17:03:00,30.5,18.3,29.95,NNE,26,8.0,23.0,60,0.00,,,0.00,Wunderground v.1.15,2013-01-11 01:03:00,
2013-01-10 17:08:00,30.3,18.5,29.95,NNE,19,9.0,25.0,61,0.00,,,0.00,Wunderground v.1.15,2013-01-11 01:08:00,
2013-01-10 17:13:00,30.1,18.3,29.95,NNE,24,21.0,25.0,61,0.00,,,0.00,Wunderground v.1.15,2013-01-11 01:13:00,
2013-01-10 17:18:00,30.0,18.2,29.95,NNE,23,12.0,21.0,61,0.00,,,0.00,Wunderground v.1.15,2013-01-11 01:18:00,
2013-01-10 17:23:00,30.0,18.2,29.95,NNE,25,17.0,23.0,61,0.00,,,0.00,Wunderground v.1.15,2013-01-11 01:23:00,
2013-01-10 17:28:00,29.9,18.1,29.95,NE,41,9.0,25.0,61,0.00,,,0.00,Wunderground v.1.15,2013-01-11 01:28:00,
2013-01-10 17:33:00,29.7,18.3,29.96,NNE,23,15.0,25.0,62,0.00,,,0.00,Wunderground v.1.15,2013-01-11 01:33:00,
2013-01-10 17:38:00,29.9,18.1,29.95,NNE,21,14.0,26.0,61,0.00,,,0.00,Wunderground v.1.15,2013-01-11 01:38:00,
2013-01-10 17:43:00,29.8,18.0,29.96,NNE,24,21.0,26.0,61,0.00,,,0.00,Wunderground v.1.15,2013-01-11 01:43:00,
2013-01-10 17:48:00,29.6,18.2,29.96,NNE,18,13.0,23.0,62,0.00,,,0.00,Wunderground v.1.15,2013-01-11 01:48:00,
2013-01-10 17:53:00,29.2,17.8,29.96,North,355,7.0,23.0,62,0.00,,,0.00,Wunderground v.1.15,2013-01-11 01:53:00,
2013-01-10 17:58:00,29.0,17.6,29.96,NNE,15,18.0,20.0,62,0.00,,,0.00,Wunderground v.1.15,2013-01-11 01:58:00,
2013-01-10 18:03:00,29.0,17.6,29.96,NNE,20,16.0,20.0,62,0.00,,,0.00,Wunderground v.1.15,2013-01-11 02:03:00,
2013-01-10 18:08:00,28.9,17.5,29.97,NNE,17,11.0,18.0,62,0.00,,,0.00,Wunderground v.1.15,2013-01-11 02:08:00,
2013-01-10 18:13:00,29.0,17.6,29.97,NNE,13,10.0,18.0,62,0.00,,,0.00,Wunderground v.1.15,2013-01-11 02:13:00,
2013-01-10 18:18:00,29.2,17.4,29.97,NNE,24,10.0,21.0,61,0.00,,,0.00,Wunderground v.1.15,2013-01-11 02:18:00,
2013-01-10 18:23:00,29.7,17.5,29.97,NNE,20,10.0,22.0,60,0.00,,,0.00,Wunderground v.1.15,2013-01-11 02:23:00,
2013-01-10 18:28:00,29.6,17.4,29.96,North,355,16.0,29.0,60,0.00,,,0.00,Wunderground v.1.15,2013-01-11 02:28:00,
2013-01-10 18:33:00,29.5,17.3,29.97,North,5,13.0,29.0,60,0.00,,,0.00,Wunderground v.1.15,2013-01-11 02:33:00,
2013-01-10 18:38:00,29.2,17.0,29.97,NNE,12,21.0,26.0,60,0.00,,,0.00,Wunderground v.1.15,2013-01-11 02:38:00,
2013-01-10 18:43:00,28.8,17.0,29.97,NE,40,18.0,26.0,61,0.00,,,0.00,Wunderground v.1.15,2013-01-11 02:43:00,
2013-01-10 18:48:00,28.7,16.9,29.97,North,5,10.0,25.0,61,0.00,,,0.00,Wunderground v.1.15,2013-01-11 02:48:00,
2013-01-10 18:51:00,28.9,17.1,29.97,North,360,14.0,25.0,61,0.00,,,0.00,Wunderground v.1.15,2013-01-11 02:51:00,
2013-01-10 18:56:00,28.9,16.7,29.97,NNE,18,18.0,25.0,60,0.00,,,0.00,Wunderground v.1.15,2013-01-11 02:56:00,
2013-01-10 19:01:00,28.8,17.0,29.97,NNE,12,18.0,25.0,61,0.00,,,0.00,Wunderground v.1.15,2013-01-11 03:01:00,
2013-01-10 19:06:00,28.8,17.0,29.97,NNE,15,19.0,23.0,61,0.00,,,0.00,Wunderground v.1.15,2013-01-11 03:06:00,
2013-01-10 19:11:00,28.7,16.9,29.97,NNE,22,13.0,25.0,61,0.00,,,0.00,Wunderground v.1.15,2013-01-11 03:11:00,
2013-01-10 19:16:00,28.5,16.7,29.98,North,10,11.0,19.0,61,0.00,,,0.00,Wunderground v.1.15,2013-01-11 03:16:00,
2013-01-10 19:21:00,28.5,16.7,29.98,NNE,22,19.0,26.0,61,0.00,,,0.00,Wunderground v.1.15,2013-01-11 03:21:00,
2013-01-10 19:26:00,28.4,16.7,29.98,NNE,15,22.0,22.0,61,0.00,,,0.00,Wunderground v.1.15,2013-01-11 03:26:00,
2013-01-10 19:31:00,28.3,16.6,29.98,North,5,17.0,25.0,61,0.00,,,0.00,Wunderground v.1.15,2013-01-11 03:31:00,
2013-01-10 19:36:00,28.3,16.6,29.98,NNE,26,21.0,21.0,61,0.00,,,0.00,Wunderground v.1.15,2013-01-11 03:36:00,
2013-01-10 19:41:00,28.1,16.4,29.98,NE,38,19.0,22.0,61,0.00,,,0.00,Wunderground v.1.15,2013-01-11 03:41:00,
2013-01-10 19:46:00,28.2,16.5,29.98,NNE,22,16.0,23.0,61,0.00,,,0.00,Wunderground v.1.15,2013-01-11 03:46:00,
2013-01-10 19:51:00,28.2,16.5,29.98,NNE,20,22.0,26.0,61,0.00,,,0.00,Wunderground v.1.15,2013-01-11 03:51:00,
2013-01-10 19:56:00,28.3,16.6,29.98,NNE,17,15.0,26.0,61,0.00,,,0.00,Wunderground v.1.15,2013-01-11 03:56:00,
2013-01-10 20:01:00,28.3,16.6,29.98,NNE,18,20.0,28.0,61,0.00,,,0.00,Wunderground v.1.15,2013-01-11 04:01:00,
2013-01-10 20:06:00,28.4,16.3,29.99,North,355,16.0,26.0,60,0.00,,,0.00,Wunderground v.1.15,2013-01-11 04:06:00,
2013-01-10 20:11:00,28.3,16.6,29.99,North,5,15.0,27.0,61,0.00,,,0.00,Wunderground v.1.15,2013-01-11 04:11:00,
2013-01-10 20:16:00,28.2,16.5,29.98,NNE,15,16.0,26.0,61,0.00,,,0.00,Wunderground v.1.15,2013-01-11 04:16:00,
2013-01-10 20:21:00,28.3,16.2,29.99,NE,34,16.0,28.0,60,0.00,,,0.00,Wunderground v.1.15,2013-01-11 04:21:00,
2013-01-10 20:26:00,28.2,16.5,29.98,NNE,32,14.0,23.0,61,0.00,,,0.00,Wunderground v.1.15,2013-01-11 04:26:00,
2013-01-10 20:31:00,28.2,16.5,29.98,NNE,26,15.0,26.0,61,0.00,,,0.00,Wunderground v.1.15,2013-01-11 04:31:00,
2013-01-10 20:36:00,28.1,16.4,29.98,NNE,26,26.0,26.0,61,0.00,,,0.00,Wunderground v.1.15,2013-01-11 04:36:00,
2013-01-10 20:41:00,28.1,16.4,29.98,NNE,19,20.0,28.0,61,0.00,,,0.00,Wunderground v.1.15,2013-01-11 04:41:00,
2013-01-10 20:46:00,28.3,16.2,29.98,NNE,25,26.0,26.0,60,0.00,,,0.00,Wunderground v.1.15,2013-01-11 04:46:00,
2013-01-10 20:51:00,28.4,16.3,29.99,NNE,24,26.0,28.0,60,0.00,,,0.00,Wunderground v.1.15,2013-01-11 04:51:00,
2013-01-10 20:56:00,28.4,15.9,29.99,NNE,33,14.0,29.0,59,0.00,,,0.00,Wunderground v.1.15,2013-01-11 04:56:00,
2013-01-10 21:00:00,28.3,16.2,29.99,NNE,31,25.0,29.0,60,0.00,,,0.00,Wunderground v.1.15,2013-01-11 05:00:00,
2013-01-10 21:05:00,28.3,16.2,29.99,NNE,23,19.0,24.0,60,0.00,,,0.00,Wunderground v.1.15,2013-01-11 05:05:00,
2013-01-10 21:10:00,28.3,15.8,29.99,NNE,22,18.0,28.0,59,0.00,,,0.00,Wunderground v.1.15,2013-01-11 05:10:00,
2013-01-10 21:15:00,28.4,15.5,29.99,NNE,18,23.0,29.0,58,0.00,,,0.00,Wunderground v.1.15,2013-01-11 05:15:00,
2013-01-10 21:20:00,28.3,15.4,29.99,NNE,24,22.0,31.0,58,0.00,,,0.00,Wunderground v.1.15,2013-01-11 05:20:00,
2013-01-10 21:25:00,28.5,15.2,29.99,NE,34,24.0,30.0,57,0.00,,,0.00,Wunderground v.1.15,2013-01-11 05:25:00,
2013-01-10 21:30:00,28.6,15.3,29.99,NNE,24,29.0,31.0,57,0.00,,,0.00,Wunderground v.1.15,2013-01-11 05:30:00,
2013-01-10 21:35:00,28.6,14.9,29.99,North,360,21.0,27.0,56,0.00,,,0.00,Wunderground v.1.15,2013-01-11 05:35:00,
2013-01-10 21:40:00,28.4,15.1,29.99,NNE,30,20.0,30.0,57,0.00,,,0.00,Wunderground v.1.15,2013-01-11 05:40:00,
2013-01-10 21:45:00,28.4,15.1,29.99,NE,36,25.0,29.0,57,0.00,,,0.00,Wunderground v.1.15,2013-01-11 05:45:00,
2013-01-10 21:50:00,28.4,15.1,30.00,NE,38,14.0,29.0,57,0.00,,,0.00,Wunderground v.1.15,2013-01-11 05:50:00,
2013-01-10 21:55:00,28.2,15.3,30.00,NNE,16,17.0,23.0,58,0.00,,,0.00,Wunderground v.1.15,2013-01-11 05:55:00,
2013-01-10 22:00:00,28.1,14.8,29.99,NNE,32,24.0,27.0,57,0.00,,,0.00,Wunderground v.1.15,2013-01-11 06:00:00,
2013-01-10 22:05:00,28.1,15.2,30.00,NNE,22,21.0,23.0,58,0.00,,,0.00,Wunderground v.1.15,2013-01-11 06:05:00,
2013-01-10 22:10:00,27.8,14.9,30.00,NNE,17,18.0,28.0,58,0.00,,,0.00,Wunderground v.1.15,2013-01-11 06:10:00,
2013-01-10 22:15:00,27.8,14.9,30.00,NNE,15,18.0,25.0,58,0.00,,,0.00,Wunderground v.1.15,2013-01-11 06:15:00,
2013-01-10 22:20:00,27.6,15.1,30.00,NNE,14,20.0,25.0,59,0.00,,,0.00,Wunderground v.1.15,2013-01-11 06:20:00,
2013-01-10 22:25:00,27.6,15.1,30.00,North,9,18.0,24.0,59,0.00,,,0.00,Wunderground v.1.15,2013-01-11 06:25:00,
2013-01-10 22:30:00,27.5,15.0,29.99,NNE,23,20.0,29.0,59,0.00,,,0.00,Wunderground v.1.15,2013-01-11 06:30:00,
2013-01-10 22:35:00,27.5,15.0,30.00,NNE,23,15.0,25.0,59,0.00,,,0.00,Wunderground v.1.15,2013-01-11 06:35:00,
2013-01-10 22:40:00,27.6,15.1,30.00,NNE,21,13.0,29.0,59,0.00,,,0.00,Wunderground v.1.15,2013-01-11 06:40:00,
2013-01-10 22:45:00,27.5,15.4,30.00,NNE,16,19.0,26.0,60,0.00,,,0.00,Wunderground v.1.15,2013-01-11 06:45:00,
2013-01-10 22:50:00,27.5,15.0,30.00,NNE,14,14.0,29.0,59,0.00,,,0.00,Wunderground v.1.15,2013-01-11 06:50:00,
2013-01-10 22:55:00,27.6,15.1,30.00,NNE,31,16.0,21.0,59,0.00,,,0.00,Wunderground v.1.15,2013-01-11 06:55:00,
2013-01-10 23:00:00,27.6,15.1,30.00,North,5,20.0,27.0,59,0.00,,,0.00,Wunderground v.1.15,2013-01-11 07:00:00,
2013-01-10 23:05:00,27.8,14.9,30.01,NE,38,18.0,27.0,58,0.00,,,0.00,Wunderground v.1.15,2013-01-11 07:05:00,
2013-01-10 23:10:00,27.7,14.8,30.01,NNE,16,21.0,27.0,58,0.00,,,0.00,Wunderground v.1.15,2013-01-11 07:10:00,
2013-01-10 23:15:00,27.6,15.1,30.01,NNE,24,22.0,25.0,59,0.00,,,0.00,Wunderground v.1.15,2013-01-11 07:15:00,
2013-01-10 23:20:00,27.7,14.8,30.01,NE,38,21.0,27.0,58,0.00,,,0.00,Wunderground v.1.15,2013-01-11 07:20:00,
2013-01-10 23:25:00,27.9,15.0,30.01,NNE,26,19.0,26.0,58,0.00,,,0.00,Wunderground v.1.15,2013-01-11 07:25:00,
2013-01-10 23:30:00,27.9,14.6,30.02,NNE,33,20.0,28.0,57,0.00,,,0.00,Wunderground v.1.15,2013-01-11 07:30:00,
2013-01-10 23:35:00,27.8,14.9,30.02,NNE,15,20.0,23.0,58,0.00,,,0.00,Wunderground v.1.15,2013-01-11 07:35:00,
2013-01-10 23:40:00,27.6,14.7,30.02,NNE,23,26.0,26.0,58,0.00,,,0.00,Wunderground v.1.15,2013-01-11 07:40:00,
2013-01-10 23:45:00,27.5,14.6,30.02,NNE,17,17.0,28.0,58,0.00,,,0.00,Wunderground v.1.15,2013-01-11 07:45:00,
2013-01-10 23:50:00,27.4,14.5,30.02,NNE,30,12.0,28.0,58,0.00,,,0.00,Wunderground v.1.15,2013-01-11 07:50:00,
2013-01-10 23:54:00,27.3,14.5,30.02,NNE,17,20.0,25.0,58,0.00,,,0.00,Wunderground v.1.15,2013-01-11 07:54:00,
2013-01-10 23:56:00,27.3,14.5,30.01,NNE,17,21.0,25.0,58,0.00,,,0.00,Wunderground v.1.15,2013-01-11 07:56:00,
2013-01-10 23:57:00,27.4,14.5,30.02,NNE,19,11.0,25.0,58,0.00,,,0.00,Wunderground v.1.15,2013-01-11 07:57:00,
2013-01-10 23:59:00,27.3,14.5,30.02,NNE,13,23.0,25.0,58,0.00,,,0.00,Wunderground v.1.15,2013-01-11 07:59:00,